| time (UTC) | temp F | wind direction | speed MPH | gust MPH | rain 1hr in | rain 24hr in | rain mn in | humidity % | barometer mb |
| 20260505180005 | 0 | 0.0 | 0.0 | 0.00 | 0.25 | 0.25 | 1019.9 | ||
| 20260505174557 | 0 | 0.0 | 0.0 | 0.00 | 0.25 | 0.25 | 1019.9 | ||
| 20260505173043 | 0 | 0.0 | 0.0 | 0.00 | 0.25 | 0.25 | 1019.6 | ||
| 20260505171545 | 0 | 0.0 | 0.0 | 0.00 | 0.25 | 0.25 | 1019.4 | ||
| 20260505170036 | 0 | 0.0 | 0.0 | 0.00 | 0.25 | 0.25 | 1019.4 | ||
| 20260505164534 | 37 | 43 | 5.0 | 11.0 | 0.01 | 0.25 | 0.25 | 97 | 1019.2 |
| 20260505163032 | 37 | 91 | 6.0 | 12.0 | 0.01 | 0.25 | 0.25 | 97 | 1019.1 |
| 20260505161529 | 37 | 52 | 5.0 | 11.0 | 0.01 | 0.25 | 0.25 | 97 | 1019.0 |
| 20260505153009 | 38 | 72 | 6.0 | 13.0 | 0.00 | 0.24 | 0.24 | 96 | 1018.8 |
| 20260505151603 | 37 | 66 | 3.0 | 8.0 | 0.00 | 0.24 | 0.24 | 97 | 1018.6 |
| 20260505124522 | 36 | 76 | 3.0 | 9.0 | 0.00 | 0.20 | 0.20 | 98 | 1018.0 |
| 20260505123019 | 37 | 76 | 1.0 | 7.0 | 0.05 | 0.20 | 0.20 | 98 | 1018.1 |
| 20260505121600 | 36 | 73 | 2.0 | 7.0 | 0.05 | 0.20 | 0.20 | 98 | 1018.1 |
| 20260505120059 | 37 | 65 | 4.0 | 10.0 | 0.05 | 0.20 | 0.20 | 98 | 1018.1 |
| 20260505114602 | 38 | 65 | 4.0 | 8.0 | 0.06 | 0.20 | 0.20 | 98 | 1018.1 |
| 20260505113040 | 38 | 103 | 3.0 | 11.0 | 0.03 | 0.15 | 0.15 | 98 | 1018.1 |
| 20260505111539 | 38 | 68 | 5.0 | 12.0 | 0.05 | 0.15 | 0.15 | 98 | 1018.2 |
| 20260505101545 | 37 | 10 | 5.0 | 10.0 | 0.02 | 0.10 | 0.10 | 98 | 1018.0 |
| 20260505100037 | 37 | 77 | 3.0 | 10.0 | 0.01 | 0.09 | 0.09 | 98 | 1018.0 |
| 20260505094526 | 38 | 74 | 6.0 | 12.0 | 0.00 | 0.08 | 0.08 | 98 | 1018.2 |
| 20260505093016 | 38 | 75 | 5.0 | 11.0 | 0.00 | 0.08 | 0.08 | 98 | 1018.3 |
| 20260505091513 | 38 | 58 | 6.0 | 11.0 | 0.00 | 0.08 | 0.08 | 98 | 1018.4 |
| 20260505090018 | 37 | 44 | 5.0 | 9.0 | 0.00 | 0.08 | 0.08 | 98 | 1018.7 |
| 20260505084512 | 37 | 66 | 3.0 | 8.0 | 0.00 | 0.08 | 0.08 | 98 | 1018.9 |
| 20260505083016 | 36 | 70 | 2.0 | 6.0 | 0.00 | 0.08 | 0.08 | 98 | 1019.2 |
| 20260505081508 | 35 | 85 | 2.0 | 7.0 | 0.00 | 0.08 | 0.08 | 97 | 1019.3 |
| 20260505080006 | 35 | 70 | 2.0 | 8.0 | 0.02 | 0.08 | 0.08 | 97 | 1019.2 |
| 20260505074503 | 36 | 113 | 4.0 | 8.0 | 0.04 | 0.08 | 0.08 | 98 | 1019.5 |
| 20260505073131 | 37 | 68 | 4.0 | 9.0 | 0.05 | 0.08 | 0.08 | 98 | 1019.4 |
| 20260505070103 | 37 | 91 | 2.0 | 8.0 | 0.03 | 0.06 | 0.06 | 98 | 1019.4 |
| 20260505064554 | 37 | 282 | 2.0 | 9.0 | 0.02 | 0.04 | 0.04 | 97 | 1019.4 |
| 20260505063051 | 37 | 208 | 3.0 | 15.0 | 0.01 | 0.03 | 0.03 | 97 | 1019.6 |
| 20260505060040 | 38 | 74 | 3.0 | 9.0 | 0.01 | 0.03 | 0.03 | 97 | 1019.7 |
| 20260505054524 | 37 | 84 | 3.0 | 9.0 | 0.01 | 0.02 | 0.02 | 97 | 1019.9 |
| 20260505053008 | 37 | 64 | 2.0 | 9.0 | 0.02 | 0.02 | 0.02 | 97 | 1020.0 |
| 20260505051516 | 37 | 58 | 3.0 | 9.0 | 0.02 | 0.02 | 0.02 | 97 | 1020.1 |
| 20260505041604 | 38 | 97 | 2.0 | 6.0 | 0.00 | 0.00 | 0.00 | 95 | 1020.3 |
| 20260505040100 | 38 | 37 | 3.0 | 8.0 | 0.00 | 0.00 | 0.00 | 94 | 1020.3 |
| 20260505034556 | 38 | 112 | 1.0 | 6.0 | 0.00 | 0.00 | 0.00 | 95 | 1020.1 |
| 20260505033045 | 38 | 72 | 2.0 | 7.0 | 0.00 | 0.00 | 0.00 | 94 | 1020.2 |
| 20260505031552 | 39 | 82 | 2.0 | 7.0 | 0.00 | 0.00 | 0.00 | 94 | 1019.9 |
| 20260505030044 | 39 | 77 | 1.0 | 7.0 | 0.00 | 0.00 | 0.00 | 95 | 1019.7 |
| 20260505024543 | 39 | 90 | 2.0 | 9.0 | 0.00 | 0.00 | 0.00 | 95 | 1019.6 |
| 20260505023045 | 39 | 53 | 3.0 | 10.0 | 0.00 | 0.00 | 0.00 | 95 | 1019.7 |
| 20260505021542 | 39 | 81 | 4.0 | 9.0 | 0.00 | 0.00 | 0.00 | 95 | 1019.6 |
| 20260505020041 | 38 | 90 | 5.0 | 11.0 | 0.00 | 0.00 | 0.00 | 96 | 1019.5 |
| 20260505014541 | 40 | 95 | 4.0 | 9.0 | 0.00 | 0.00 | 0.00 | 94 | 1019.7 |
| 20260505013019 | 0 | 0.0 | 0.0 | 0.00 | 0.00 | 0.00 | 1019.6 | ||
| 20260505011515 | 0 | 0.0 | 0.0 | 0.00 | 0.00 | 0.00 | 1019.6 | ||
| 20260505010010 | 0 | 0.0 | 0.0 | 0.00 | 0.00 | 0.00 | 1019.8 | ||
| 20260505004506 | 0 | 0.0 | 0.0 | 0.00 | 0.00 | 0.00 | 1019.8 | ||
| 20260505003001 | 0 | 0.0 | 0.0 | 0.00 | 0.00 | 0.00 | 1019.6 | ||
| 20260505001557 | 0 | 0.0 | 0.0 | 0.00 | 0.00 | 0.00 | 1019.8 | ||
| 20260505000100 | 0 | 0.0 | 0.0 | 0.00 | 0.00 | 0.00 | 1019.8 | ||
| 20260504234549 | 0 | 0.0 | 0.0 | 0.00 | 0.00 | 0.00 | 1019.9 | ||
| 20260504233026 | 0 | 0.0 | 0.0 | 0.00 | 0.00 | 0.00 | 1019.8 | ||
| 20260504231522 | 0 | 0.0 | 0.0 | 0.00 | 0.00 | 0.00 | 1019.8 | ||
| 20260504230003 | 0 | 0.0 | 0.0 | 0.00 | 0.00 | 0.00 | 1019.7 | ||
| 20260504224559 | 0 | 0.0 | 0.0 | 0.00 | 0.00 | 0.00 | 1019.9 | ||
| 20260504223100 | 0 | 0.0 | 0.0 | 0.00 | 0.00 | 0.00 | 1019.9 | ||
| 20260504221550 | 0 | 0.0 | 0.0 | 0.00 | 0.00 | 0.00 | 1020.4 | ||
| 20260504220048 | 0 | 0.0 | 0.0 | 0.00 | 0.00 | 0.00 | 1020.3 | ||
| 20260504214547 | 0 | 0.0 | 0.0 | 0.00 | 0.00 | 0.00 | 1020.7 | ||
| 20260504213041 | 0 | 0.0 | 0.0 | 0.00 | 0.00 | 0.00 | 1020.7 | ||
| 20260504211536 | 0 | 0.0 | 0.0 | 0.00 | 0.00 | 0.00 | 1020.9 | ||
| 20260504210017 | 42 | 90 | 4.0 | 13.0 | 0.00 | 0.00 | 0.00 | 96 | 1020.8 |
| 20260504204518 | 41 | 65 | 4.0 | 9.0 | 0.00 | 0.00 | 0.00 | 97 | 1020.8 |
| 20260504203014 | 0 | 0.0 | 0.0 | 0.00 | 0.00 | 0.00 | 1020.7 | ||
| 20260504201509 | 0 | 0.0 | 0.0 | 0.00 | 0.00 | 0.00 | 1020.8 | ||
| 20260504200005 | 0 | 0.0 | 0.0 | 0.00 | 0.00 | 0.00 | 1020.8 | ||
| 20260504194611 | 0 | 0.0 | 0.0 | 0.00 | 0.00 | 0.00 | 1021.0 | ||
| 20260504194501 | 0 | 0.0 | 0.0 | 0.00 | 0.00 | 0.00 | 1021.1 | ||
| 20260504193104 | 0 | 0.0 | 0.0 | 0.00 | 0.00 | 0.00 | 1021.1 | ||
| 20260504191559 | 0 | 0.0 | 0.0 | 0.00 | 0.00 | 0.00 | 1021.0 | ||
| 20260504190036 | 0 | 0.0 | 0.0 | 0.00 | 0.00 | 0.00 | 1021.2 | ||
| 20260504184535 | 0 | 0.0 | 0.0 | 0.00 | 0.00 | 0.00 | 1021.1 | ||
| 20260504183027 | 0 | 0.0 | 0.0 | 0.00 | 0.00 | 0.00 | 1020.8 | ||
| 20260504181530 | 0 | 0.0 | 0.0 | 0.00 | 0.00 | 0.00 | 1021.0 |